Zurück zum Katalog

DMSP 5D-2 F14 DEB

AktivSSO
NORAD 63155·DEBRIS·🇺🇸 United States

Gestartet Apr 4, 1997 von Vandenberg Space Force Base

Loading…

Nächste Überflüge (nächste 24 Stunden)

TLE

AktuellSource: Space-Track

Epoche: Sep 14, 2026, 15:07 UTC

1 63155U 97012V   26257.63031818  .00001983  00000-0  83925-3 0  9992
2 63155  98.8406 317.3493 0034461 145.4683 214.8745 14.26314960 81664

Verfolge DMSP 5D-2 F14 DEB in Echtzeit mit AllMySat

Download on the App Store